Regional Weather Roundup
Issued by NWS

Home | Current Version | Previous Version | Text Only | Print | Product List | Glossary Off
Versions: 1 2 3 4 5 6 7 8 9 10 11 12 13 14 15 16 17 18 19 20 21 22 23 24 25 26 27 28 29 30 31 32 33 34 35 36 37 38 39 40 41 42 43 44 45 46 47 48 49 50

000
ASUS43 KLOT 050008
RWRIL

ILLINOIS REGIONAL WEATHER ROUNDUP
NATIONAL WEATHER SERVICE CHICAGO/ROMEOVILLE IL
700 PM CDT WED MAY 04 2016

NOTE: "FAIR" INDICATES FEW OR NO CLOUDS BELOW 12,000 FEET WITH NO
SIGNIFICANT WEATHER AND/OR OBSTRUCTIONS TO VISIBILITY.

* THESE STATIONS ARE NOT UNDER NWS QUALITY CONTROL. THEY ALSO MAY NOT
  REPORT WEATHER SUCH AS PRECIPITATION OR FOG.

ILZ001-002-007-009-015-016-024-050100-
NORTHWEST ILLINOIS

CITY           SKY/WX    TMP DP  RH WIND       PRES   REMARKS
MOLINE         SUNNY     62  32  32 NW14G28   29.85R
6HR MIN TEMP:  59; 6HR MAX TEMP:  65;

STERLING*      CLOUDY    59  36  41 N10       29.84S
SAVANNA*       CLOUDY    62  32  32 NW14      29.84S
$$

ILZ003-004-008-010-011-017-018-050100-
NORTH CENTRAL ILLINOIS

CITY           SKY/WX    TMP DP  RH WIND       PRES   REMARKS
ROCKFORD       MOCLDY    57  33  40 N13       29.85R
6HR MIN TEMP:  53; 6HR MAX TEMP:  60;

FREEPORT*      MOCLDY    56  32  39 N8G16     29.85R
ROCHELLE*      CLOUDY    56  37  48 N12       29.83S
DE KALB*       CLOUDY    54  40  61 N8        29.83S
$$

ILZ005-006-012>014-019>023-050100-
NORTHEAST ILLINOIS

CITY           SKY/WX    TMP DP  RH WIND       PRES   REMARKS
CHICAGO-OHARE  MOCLDY    45  36  70 NE15      29.83R
6HR MIN TEMP:  45; 6HR MAX TEMP:  51;

CHICAGO-MIDWAY CLOUDY    47  35  63 N14       29.84R
6HR MIN TEMP:  47; 6HR MAX TEMP:  51;

AURORA         CLOUDY    54  40  59 N9        29.82S
6HR MIN TEMP:  50; 6HR MAX TEMP:  57;

LANSING*       CLOUDY    44  36  72 N6        29.84S
JOLIET*        CLOUDY    54  40  58 N6        29.83R
WAUKEGAN       CLOUDY    43  36  76 N10G21    29.84R
6HR MIN TEMP:  43; 6HR MAX TEMP:  50;

DUPAGE AIRPORT CLOUDY    52  38  58 N9        29.81S
6HR MIN TEMP:  49; 6HR MAX TEMP:  55;

KANKAKEE*      CLOUDY    48  39  71 NE5       29.84R
WHEELING       CLOUDY    45  36  70 N14G21    29.85R
6HR MIN TEMP:  45; 6HR MAX TEMP:  51;

MORRIS*        CLOUDY    55  42  61 CALM      29.81S
ROMEOVILLE*    CLOUDY    52  37  58 N9        29.82S
NORTHERLY ISL    N/A     44  36  73 N13         N/A
NORTHERLY ISL    N/A     44  36  73 N13         N/A
$$

LMZ740>746-050100-
SOUTHERN LAKE MICHIGAN

STATION/POSITION SKY/WX   TEMP    WIND        PRES    VSBY  WAVE
                          AIR SEA DIR/SP/G                  HT/PER
                          (F)     (DEG/KT/KT) (MB)    (MI)  (FT/S)
SOUTHERN BUOY              42 40   20/ 25/ 29 1008.9R         9/ 8
WILMETTE HARBOR            42 44   20/ 12/ 16   N/A           6/ 7
HARRISON CRIB              44     360/ 17/ 19   N/A
BURNHAM HARBOR             44     340/ 13/ 15   N/A
CALUMET HARBOR                                1009.9R
BURNS HARBOR               44     350/ 16/ 24 1010.2R
MICHIGAN CITY              42     340/ 25/ 28   N/A
ST. JOSEPH                 42 47                N/A          10/ 8
$$

ILZ025>027-034>036-040-047-049-050-058-095>099-050100-
WEST-CENTRAL ILLINOIS

CITY           SKY/WX    TMP DP  RH WIND       PRES   REMARKS
QUINCY         MOSUNNY   61  35  37 N12       29.88F
GALESBURG*     MOSUNNY   60  34  38 N16       29.86S
MACOMB*        CLOUDY    63  32  31 N22G30    29.88S
JACKSONVILLE*  CLOUDY    62  33  32 NW18G24   29.86R
PITTSFIELD*    MOSUNNY   62  37  38 NW14G22   29.89S
$$

ILZ028>032-037-038-041>044-048-051>054-059>061-050100-
CENTRAL ILLINOIS

CITY           SKY/WX    TMP DP  RH WIND       PRES   REMARKS
PONTIAC        CLOUDY    56  44  63 N9        29.84R
BLOOMINGTON    MOCLDY    55  42  61 N12       29.85R
DECATUR        MOCLDY    57  38  48 NW14G20   29.84S
PEORIA         CLOUDY    62  31  31 N13G23    29.84S
6HR MIN TEMP:  56; 6HR MAX TEMP:  63;

LACON*         CLOUDY    56  38  49 CALM      29.83S
LINCOLN*       MOCLDY    60  41  50 N8        29.84S
SPRINGFIELD    PTCLDY    62  37  39 N12       29.85S
6HR MIN TEMP:  59; 6HR MAX TEMP:  63;

TAYLORVILLE    PTCLDY    56  41  55 N10       29.85S
6HR MIN TEMP:  56; 6HR MAX TEMP:  60;

$$

ILZ033-039-045-046-055>057-062-063-050100-
EAST-CENTRAL ILLINOIS

CITY           SKY/WX    TMP DP  RH WIND       PRES   REMARKS
CHAMPAIGN      PTCLDY    53  41  63 NW14      29.83S
RANTOUL*       CLOUDY    55  41  60 N13       29.83R
MATTOON        CLOUDY    53  43  68 N12       29.83S
PARIS*         CLOUDY    53  41  63 N6        29.83R
$$

ILZ079-100>102-050100-
SOUTHWEST ILLINOIS

CITY           SKY/WX    TMP DP  RH WIND       PRES   REMARKS
ALTON          PTCLDY    61  34  36 N17       29.87R
BELLEVILLE     CLEAR     62  37  39 VRB7G17   29.85R
CAHOKIA*       CLEAR     63  36  36 N16       29.86R
SPARTA*        MOCLDY    61  42  50 N12       29.86R
$$

ILZ064>066-069>071-074>076-080>082-084>086-088>090-092>094-050100-
SOUTH-CENTRAL ILLINOIS

CITY           SKY/WX    TMP DP  RH WIND       PRES   REMARKS
CARBONDALE     PTCLDY    63  40  42 N14G21    29.84R
6HR MIN TEMP:  63; 6HR MAX TEMP:  69; 6HR PCP: TRACE;

CAIRO*         CLEAR     65  44  45 N14       29.81R
EFFINGHAM*     CLOUDY    56  43  62 NW9       29.86R
MARION         MOCLDY    63  41  45 N13G20    29.84R
MT. VERNON     PTCLDY    57  37  47 N5        29.85R
CENTRALIA*     CLOUDY    59  43  54 N12G20    29.84R
SALEM*         CLOUDY    59  39  48 N17       29.85R
METROPOLIS*    PTCLDY    63  45  51 N9        29.83R
$$

ILZ067-068-072-073-078-083-087-091-050100-
SOUTHEAST ILLINOIS

CITY           SKY/WX    TMP DP  RH WIND       PRES   REMARKS
LAWRENCEVILLE  CLOUDY    56  41  57 N18G28    29.82R
FLORA*         CLOUDY    58  42  54 N10       29.84S
FAIRFIELD*     MOCLDY    58  40  50 N9G18     29.83R
HARRISBURG*    MOCLDY    59  44  56 N14G20    29.83R
ROBINSON*      MOCLDY    54  41  61 N14G21    29.83S
CARMI*         PTCLDY    59  40  49 NW17G26   29.81R
$$

ABBREVIATIONS USED IN REMARKS
   TC - TEMPERATURE IN CELSIUS
  WCI - WIND CHILL INDEX
   HX - HEAT INDEX
  VSB - VISIBILITY
$$





USA.gov is the U.S. government's official web portal to all federal, state and local government web resources and services.